User: anonymous   Login
Location: Caltech
(34.1382°N, 118.1253°W)
Time: 01:18:21
(UTC-07:00)
Language:

BREEZE M DEB (TANK) - Orbit

View from above orbital plane
View from above orbital plane
View from above satellite
View from above satellite

Ground track
Ground track

The orbit data is extracted from the following two-line orbital elements,

1 33437U 08057B   16176.38271482 +.00000430 +00000-0 +13912-3 0  9992
2 33437 049.5669 192.1544 4989083 175.5321 191.6921 05.59549611153803
Epoch (UTC): 24 June 2016 09:11:06
Eccentricity: 0.4989083
inclination: 49.5669°
perigee height: 337 km
apogee height: 13710 km
right ascension of ascending node: 192.1544°
argument of perigee: 175.5321°
revolutions per day: 5.59549611
mean anomaly at epoch: 191.6921°
orbit number at epoch: 15380

The dashed part of the orbit path shows where the satellite is in the earth's shadow,  

DLR